Location: Clermont
(50.2608°N, 4.3172°E)
Time: 23:15:40
(UTC+00:00)

Cosmos 1980 - Pass Details

Date: 13 August 2020
Orbit: 838 x 848 km, 71.0° (Epoch: 23 September)

Event Time Altitude Azimuth Distance (km) Brightness Sun altitude
Rises 22:56:04 0° 331° (NNW) 3,416 8.1 -24.5°
Reaches altitude 10° 22:58:34 10° 335° (NNW) 2,478 7.2 -24.6°
Maximum altitude 23:04:13 62° 57° (ENE) 951 4.0 -24.8°
Enters shadow 23:05:36 48° 110° (ESE) 1,104 4.0 -24.8°
